Starlink 30358

operational
NORAD ID: 57879 Int'l Des: 2023-144 Owner: SPXS Country: US Constellation: starlink
LEOCIRCULAR

Über Starlink 30358

Beschreibung wird geladen...

Live-Position

3D-Globus wird geladen...

Nächste Überflüge

Höhenverlauf

Altitude vs Time

uPlot chart will show altitude changes over time

Zweizeiliger Elementsatz

1 57879U 23144R 25305.60449748 -.00000440 00000-0 -17463-4 0 9992
2 57879 43.0061 263.4243 0001349 264.8010 95.2678 15.02533494118344
Epoch: 1. Nov. 2025 • Age: 43 hours

Aktueller Status

Höhe 570.1 km
Geschwindigkeit 7.58 km/s
Subsatellitenpunkt -39.35°S, 44.45°W
Startdatum 16. Sept. 2023
Alter 2.1 years
Typ internet

Technische Details

Klassifizierung Payload
Masse 730.00 kg
Trockenmasse 700.00 kg
Gesamtmasse 730.00 kg
Länge 0.30 m
Durchmesser 4.10 m
Spannweite 29.00 m
Form Box + pan
Hersteller SPXS
Bus-Typ Starlink V2M
Phasenstatus In Orbit
Besitzer/Staat SPXS/US

Große Konstellationen

Loading constellations...